Retour au catalogue

COSMOS 2251 DEB

ActifLEO
NORAD 33819·DEBRIS·🇷🇺 Russia

Lancé Jun 16, 1993 depuis Plesetsk Cosmodrome

Loading…

Prochains Passages (prochaines 24 heures)

TLE

FraisSource: Space-Track

Époque: Sep 14, 2026, 10:36 UTC

1 33819U 93036BL  26257.44201940  .00001161  00000-0  41459-3 0  9996
2 33819  74.1774  70.7458 0088460 214.4223 165.0168 14.33065874914441

Suivez COSMOS 2251 DEB en temps réel avec AllMySat

Download on the App Store